Change the Weather History Date:

Saturday, November 9, 2013

  Actual Average (KMGW) Record (KMGW)
Temperature  
Mean Temperature 40 °F 47 °F  
Max Temperature 53 °F 57 °F 80 °F (1975)
Min Temperature 26 °F 38 °F 17 °F (1991)
Degree Days  
Heating Degree Days 26 18  
Month to date heating degree days 150  
Since 1 July heating degree days 592  
Cooling Degree Days 0 0  
Month to date cooling degree days 0  
Year to date cooling degree days 813  
Moisture  
Dew Point 10 °F    
Average Humidity 39    
Maximum Humidity 86    
Minimum Humidity 5    
Precipitation  
Precipitation 0.00 in 0.11 in 0.90 in (1986)
Month to date precipitation 0.99  
Year to date precipitation 36.45  
Sea Level Pressure  
Sea Level Pressure 30.11 in    
Wind  
Wind Speed 7 mph (SW)    
Max Wind Speed 16 mph    
Max Gust Speed 31 mph    
Visibility 10 miles    
Events      
T = Trace of Precipitation, MM = Missing Value Source: NWS Daily Summary

Daily Weather History Graph

Daily Weather History Graph

Search for Another Location

Airport or City:

Trip Planner

Search our weather history database for the weather conditions in past years. The results will help you decide how hot, cold, wet, or windy it might be!

Date:

Astronomy

Nov. 09, 2013 Rise Set
Actual Time 6:55 AM EST 5:06 PM EST
Civil Twilight 6:26 AM EST 5:35 PM EST
Nautical Twilight 5:54 AM EST 6:07 PM EST
Astronomical Twilight 5:22 AM EST 6:39 PM EST
Moon 12:30 PM EST (11/9) 11:34 PM EST (11/9)
Length of Visible Light 11h 08m
Length of Day
10h 11m
Waxing Crescent, 44% of the Moon is Illuminated
Nov 9
Waxing Crescent
Nov 10
First Quarter
Nov 17
Full
Nov 25
Last Quarter
Dec 2
New

Hourly Weather History & Observations

Time (EST) Temp. Windchill Dew Point Humidity Pressure Visibility Wind Dir Wind Speed Gust Speed Precip Events Conditions
12:15 AM 28.4 °F 24.6 °F 21.2 °F 74% 30.22 in 10.0 mi West 3.5 mph - N/A   Clear
12:35 AM 28.4 °F 24.6 °F 21.2 °F 74% 30.22 in 10.0 mi WSW 3.5 mph - N/A   Clear
12:55 AM 28.4 °F 24.6 °F 21.2 °F 74% 30.22 in 10.0 mi WSW 3.5 mph - N/A   Clear
1:15 AM 28.4 °F 24.6 °F 21.2 °F 74% 30.22 in 10.0 mi SSW 3.5 mph - N/A   Clear
1:35 AM 26.6 °F 21.2 °F 23.0 °F 86% 30.22 in 10.0 mi SSW 4.6 mph - N/A   Clear
1:55 AM 26.6 °F 20.0 °F 23.0 °F 86% 30.22 in 10.0 mi SSW 5.8 mph - N/A   Clear
2:15 AM 26.6 °F 20.0 °F 23.0 °F 86% 30.22 in 10.0 mi SSW 5.8 mph - N/A   Clear
2:35 AM 26.6 °F 20.0 °F 23.0 °F 86% 30.21 in 10.0 mi SSW 5.8 mph - N/A   Clear
2:55 AM 26.6 °F 21.2 °F 23.0 °F 86% 30.22 in 10.0 mi SW 4.6 mph - N/A   Clear
3:15 AM 28.4 °F 22.2 °F 21.2 °F 74% 30.21 in 10.0 mi SW 5.8 mph - N/A   Clear
3:35 AM 28.4 °F 22.2 °F 19.4 °F 69% 30.21 in 10.0 mi SW 5.8 mph - N/A   Clear
3:55 AM 30.2 °F 23.4 °F 19.4 °F 64% 30.21 in 10.0 mi SSW 6.9 mph - N/A   Clear
4:15 AM 28.4 °F 21.2 °F 21.2 °F 74% 30.20 in 10.0 mi SSW 6.9 mph - N/A   Clear
4:35 AM 28.4 °F 21.2 °F 21.2 °F 74% 30.19 in 10.0 mi South 6.9 mph - N/A   Clear
4:55 AM 28.4 °F 21.2 °F 21.2 °F 74% 30.20 in 10.0 mi SSW 6.9 mph - N/A   Clear
5:15 AM 28.4 °F 22.2 °F 21.2 °F 74% 30.21 in 10.0 mi SW 5.8 mph - N/A   Clear
5:35 AM 30.2 °F 23.4 °F 21.2 °F 69% 30.21 in 10.0 mi SW 6.9 mph - N/A   Clear
5:55 AM 30.2 °F 23.4 °F 21.2 °F 69% 30.20 in 10.0 mi SSW 6.9 mph - N/A   Clear
6:15 AM 30.2 °F 22.6 °F 21.2 °F 69% 30.21 in 10.0 mi SSW 8.1 mph - N/A   Clear
6:35 AM 30.2 °F 23.4 °F 21.2 °F 69% 30.20 in 10.0 mi South 6.9 mph - N/A   Clear
6:55 AM 30.2 °F 23.4 °F 21.2 °F 69% 30.21 in 10.0 mi South 6.9 mph - N/A   Clear
7:15 AM 30.2 °F 22.6 °F 21.2 °F 69% 30.19 in 10.0 mi South 8.1 mph - N/A   Clear
7:35 AM 32.0 °F 26.4 °F 21.2 °F 64% 30.19 in 10.0 mi South 5.8 mph - N/A   Clear
7:55 AM 32.0 °F 25.6 °F 21.2 °F 64% 30.19 in 10.0 mi South 6.9 mph - N/A   Clear
8:15 AM 33.8 °F 27.7 °F 21.2 °F 60% 30.20 in 10.0 mi South 6.9 mph - N/A   Clear
8:35 AM 35.6 °F 30.7 °F 21.2 °F 56% 30.19 in 10.0 mi South 5.8 mph - N/A   Clear
8:55 AM 35.6 °F 29.2 °F 19.4 °F 52% 30.19 in 10.0 mi SSW 8.1 mph - N/A   Clear
9:15 AM 37.4 °F 30.3 °F 19.4 °F 48% 30.18 in 10.0 mi South 10.4 mph - N/A   Clear
9:35 AM 37.4 °F 30.8 °F 17.6 °F 45% 30.18 in 10.0 mi South 9.2 mph - N/A   Clear
9:55 AM 41.0 °F 35.2 °F 17.6 °F 39% 30.17 in 10.0 mi South 9.2 mph - N/A   Clear
10:15 AM 41.0 °F 34.3 °F 15.8 °F 36% 30.17 in 10.0 mi SSW 11.5 mph 16.1 mph N/A   Clear
10:35 AM 41.0 °F 34.7 °F 17.6 °F 39% 30.16 in 10.0 mi SSW 10.4 mph 17.3 mph N/A   Clear
10:55 AM 42.8 °F 39.3 °F 14.0 °F 31% 30.15 in 10.0 mi SW 5.8 mph 16.1 mph N/A   Clear
11:15 AM 42.8 °F 37.5 °F 10.4 °F 27% 30.15 in 10.0 mi SW 9.2 mph 17.3 mph N/A   Clear
11:35 AM 44.6 °F 38.8 °F 8.6 °F 23% 30.13 in 10.0 mi SW 11.5 mph 18.4 mph N/A   Clear
11:55 AM 46.4 °F 40.4 °F 8.6 °F 22% 30.12 in 10.0 mi SW 13.8 mph 17.3 mph N/A   Clear
12:15 PM 46.4 °F 41.9 °F 8.6 °F 22% 30.10 in 10.0 mi SSW 9.2 mph 17.3 mph N/A   Clear
12:35 PM 46.4 °F 40.4 °F 5.0 °F 18% 30.09 in 10.0 mi SW 13.8 mph 20.7 mph N/A   Clear
12:55 PM 48.2 °F - 3.2 °F 16% 30.08 in 10.0 mi SW 12.7 mph 18.4 mph N/A   Clear
1:15 PM 50.0 °F - 3.2 °F 15% 30.07 in 10.0 mi SW 9.2 mph - N/A   Clear
1:35 PM 50.0 °F - 3.2 °F 15% 30.06 in 10.0 mi SSW 8.1 mph - N/A   Clear
1:55 PM 50.0 °F - 3.2 °F 15% 30.05 in 10.0 mi SSW 9.2 mph 16.1 mph N/A   Clear
2:15 PM 53.6 °F - -4.0 °F 9% 30.04 in 10.0 mi SSW 13.8 mph 18.4 mph N/A   Scattered Clouds
2:35 PM 51.8 °F - -16.6 °F 5% 30.04 in 10.0 mi WSW 9.2 mph 24.2 mph N/A   Overcast
2:55 PM 50.0 °F - -13.0 °F 7% 30.04 in 10.0 mi SW 8.1 mph - N/A   Overcast
3:15 PM 50.0 °F - -5.8 °F 10% 30.04 in 10.0 mi WSW 5.8 mph - N/A   Overcast
3:35 PM 48.2 °F - -4.0 °F 11% 30.05 in 10.0 mi SW 6.9 mph - N/A   Overcast
3:55 PM 50.0 °F - -4.0 °F 11% 30.04 in 10.0 mi SW 8.1 mph 16.1 mph N/A   Mostly Cloudy
4:15 PM 50.0 °F - -4.0 °F 11% 30.04 in 10.0 mi SW 8.1 mph - N/A   Scattered Clouds
4:35 PM 50.0 °F - -2.2 °F 12% 30.02 in 10.0 mi SSW 11.5 mph 21.9 mph N/A   Clear
4:55 PM 46.4 °F 41.1 °F -0.4 °F 14% 30.03 in 10.0 mi SSW 11.5 mph 18.4 mph N/A   Clear
5:15 PM 46.4 °F 41.5 °F -0.4 °F 14% 30.02 in 10.0 mi SW 10.4 mph 19.6 mph N/A   Clear
5:35 PM 44.6 °F 38.4 °F -0.4 °F 15% 30.03 in 10.0 mi SW 12.7 mph 18.4 mph N/A   Clear
5:55 PM 44.6 °F 38.4 °F 1.4 °F 17% 30.02 in 10.0 mi SSW 12.7 mph 16.1 mph N/A   Clear
6:15 PM 44.6 °F 38.4 °F 1.4 °F 17% 30.02 in 10.0 mi SW 12.7 mph 18.4 mph N/A   Clear
6:35 PM 44.6 °F 38.1 °F 1.4 °F 17% 30.02 in 10.0 mi SW 13.8 mph 19.6 mph N/A   Clear
6:55 PM 44.6 °F 40.2 °F 1.4 °F 17% 30.02 in 10.0 mi SW 8.1 mph - N/A   Clear
7:15 PM 44.6 °F 40.2 °F 1.4 °F 17% 30.02 in 10.0 mi SW 8.1 mph 17.3 mph N/A   Clear
7:35 PM 44.6 °F 39.7 °F 1.4 °F 17% 30.01 in 10.0 mi WSW 9.2 mph 19.6 mph N/A   Clear
7:55 PM 46.4 °F 40.7 °F 1.4 °F 16% 30.01 in 10.0 mi WSW 12.7 mph 26.5 mph N/A   Clear
8:15 PM 46.4 °F 41.1 °F 1.4 °F 16% 30.01 in 10.0 mi WSW 11.5 mph 21.9 mph N/A   Clear
8:35 PM 46.4 °F 39.8 °F 3.2 °F 17% 30.01 in 10.0 mi WSW 16.1 mph 27.6 mph N/A   Clear
8:55 PM 46.4 °F 40.7 °F 3.2 °F 17% 30.01 in 10.0 mi WSW 12.7 mph 31.1 mph N/A   Clear
9:15 PM 44.6 °F 39.2 °F 3.2 °F 18% 30.01 in 10.0 mi WSW 10.4 mph 23.0 mph N/A   Clear
9:35 PM 44.6 °F 37.8 °F 3.2 °F 18% 30.02 in 10.0 mi WSW 15.0 mph 21.9 mph N/A   Clear
9:55 PM 44.6 °F 38.4 °F 5.0 °F 20% 30.02 in 10.0 mi WSW 12.7 mph 25.3 mph N/A   Clear
10:15 PM 44.6 °F 38.1 °F 5.0 °F 20% 30.02 in 10.0 mi WSW 13.8 mph 23.0 mph N/A   Clear
10:35 PM 42.8 °F 35.4 °F 6.8 °F 23% 30.02 in 10.0 mi West 15.0 mph 24.2 mph N/A   Clear
10:55 PM 44.6 °F 38.1 °F 6.8 °F 21% 30.01 in 10.0 mi WSW 13.8 mph 26.5 mph N/A   Clear
11:15 PM 42.8 °F 36.6 °F 6.8 °F 23% 30.01 in 10.0 mi WSW 11.5 mph 25.3 mph N/A   Clear
11:35 PM 42.8 °F 35.8 °F 8.6 °F 25% 30.00 in 10.0 mi West 13.8 mph 31.1 mph N/A   Clear
11:55 PM 42.8 °F 35.1 °F 8.6 °F 25% 30.00 in 10.0 mi West 16.1 mph 25.3 mph N/A   Mostly Cloudy